Location: Unspecified
(47.7003°N, 0.0000°E)
Time: 03:23:50
(UTC+00:00)

Meteor 1-11 Rocket - Visible Passes

Search period start: 04 April 2026 00:00
Search period end: 14 April 2026 00:00
Orbit: 830 x 914 km, 81.2° (Epoch: 29 March)

Date Brightness Start Highest point End Pass type
(mag) Time Alt. Az. Time Alt. Az. Time Alt. Az.
4 Apr 6.9 03:01:14 10° NNE 03:04:27 15° ENE 03:07:39 10° E visible
4 Apr 4.1 04:42:56 10° N 04:48:56 76° ENE 04:54:53 10° SSE visible
4 Apr 6.8 19:44:47 10° WSW 19:48:50 19° WNW 19:52:57 10° NNW visible
5 Apr 6.9 02:55:31 10° NNE 02:58:52 15° ENE 03:02:13 10° E visible
5 Apr 4.1 04:37:18 10° N 04:43:19 79° ENE 04:49:15 10° SSE visible
5 Apr 6.8 19:39:16 10° WSW 19:43:14 19° WNW 19:47:16 10° NNW visible
6 Apr 6.8 02:49:47 10° NNE 02:53:17 16° ENE 02:56:45 10° E visible
6 Apr 4.0 04:31:41 10° N 04:37:41 82° ENE 04:43:36 10° SSE visible
6 Apr 6.8 19:33:46 10° W 19:37:38 18° WNW 19:41:34 10° NNW visible
7 Apr 6.7 02:44:04 10° NNE 02:47:41 16° ENE 02:51:17 10° E visible
7 Apr 4.0 04:26:02 10° N 04:32:04 85° ENE 04:37:59 10° SSE visible
7 Apr 6.8 19:28:16 10° W 19:32:03 17° WNW 19:35:53 10° NNW visible
8 Apr 6.7 02:38:22 10° NNE 02:42:06 17° ENE 02:45:48 10° E visible
8 Apr 3.9 04:20:25 10° N 04:26:26 87° E 04:32:21 10° S visible
8 Apr 6.9 19:22:46 10° W 19:26:27 17° WNW 19:30:11 10° NNW visible
9 Apr 6.6 02:32:40 10° NNE 02:36:30 17° ENE 02:40:19 10° E visible
9 Apr 3.9 04:14:47 10° NNW 04:20:48 90° W 04:26:42 10° S visible
9 Apr 6.9 19:17:17 10° W 19:20:51 16° WNW 19:24:29 10° NNW visible
10 Apr 6.5 02:26:57 10° NNE 02:30:55 18° ENE 02:34:50 10° E visible
10 Apr 3.9 04:09:10 10° NNW 04:15:10 87° W 04:21:04 10° S visible
10 Apr 6.9 19:11:48 10° W 19:15:16 16° WNW 19:18:47 10° NNW visible
11 Apr 6.5 02:21:16 10° NNE 02:25:19 18° ENE 02:29:20 10° ESE visible
11 Apr 3.8 04:03:32 10° NNW 04:09:32 84° W 04:15:25 10° S visible
12 Apr 6.4 02:15:34 10° NNE 02:19:44 19° ENE 02:23:50 10° ESE visible
12 Apr 3.8 03:57:54 10° NNW 04:03:54 81° W 04:09:46 10° S visible
13 Apr 6.3 02:09:53 10° NNE 02:14:07 20° ENE 02:18:19 10° ESE visible
13 Apr 3.8 03:52:18 10° NNW 03:58:16 78° W 04:04:07 10° S visible
